Cloud_Cover
100 100 100 100 100 100 100 100 100 100 100 100 100 100 100 22 100 100 100 100 100 100 86 80 16 5 2 0 0 0 0 0 0 0 0 0 1 5 54 5 5 40 2 0 0 0 53
100 100 100 100 100 100 100 100 100 100 100 100 100 100 100 100 82 100 100 98 100 99 44 75 6 35 0 0 0 0 0 0 0 0 0 0 4 1 5 5 41 16 0 4 3 2 67
100 100 100 100 100 100 100 100 100 97 100 100 100 100 100 100 80 16 97 100 100 100 52 28 1 0 0 0 0 0 0 0 0 0 0 0 0 2 5 15 2 4 1 5 5 2 10
100 100 100 100 100 100 100 100 100 100 100 100 100 100 100 100 100 100 100 100 81 40 20 9 7 0 0 0 0 0 0 0 0 0 0 0 0 0 5 19 4 1 5 100 10 0 3
100 100 100 100 100 100 100 100 100 100 98 100 100 100 100 100 100 20 74 19 8 36 3 1 8 0 0 0 0 0 0 0 0 0 0 0 0 3 5 1 26 40 68 48 71 0 1
100 100 100 100 100 100 100 100 100 100 100 100 100 100 100 100 88 30 1 11 26 32 18 0 0 0 0 0 0 0 0 0 0 0 0 0 0 3 5 75 100 99 100 29 61 38 25
100 100 100 100 100 100 100 100 100 100 100 100 100 100 100 61 20 0 0 0 0 0 0 0 0 0 0 0 0 0 0 0 0 0 0 0 5 5 87 100 72 100 5 75 9 0 11
97 100 100 100 100 100 100 100 99 100 100 100 100 99 100 100 13 0 0 0 0 0 0 0 0 0 0 0 0 0 0 0 0 0 2 4 5 12 56 4 2 91 36 79 17 0 3
100 78 100 100 100 89 100 100 100 100 100 100 100 100 84 17 1 20 0 0 0 0 0 0 0 0 0 0 0 0 0 0 0 0 1 20 2 53 12 1 2 5 100 100 98 35 0
100 100 100 100 100 2 62 100 100 100 100 100 100 100 93 0 44 0 0 0 0 0 0 0 0 0 0 0 0 0 0 0 0 0 5 5 92 2 0 5 5 99 54 16 5 4 98
100 89 74 97 96 21 100 100 100 100 100 100 100 100 77 27 0 0 0 0 0 0 0 0 0 0 0 0 0 0 0 0 0 0 2 3 5 3 0 4 5 89 12 7 18 45 91
100 100 100 100 92 73 100 89 100 100 100 100 100 100 82 12 0 0 0 0 0 0 0 0 0 0 0 0 0 0 0 0 0 0 0 3 4 4 0 1 5 29 0 1 5 5 100
98 100 99 95 100 100 100 100 100 100 100 100 100 100 79 0 0 0 0 0 0 0 0 0 0 0 0 0 0 0 0 0 0 0 0 0 4 0 0 4 0 1 4 85 99 100 91
100 100 100 100 100 100 100 100 100 100 100 100 93 96 6 0 0 0 0 0 0 0 4 0 0 0 0 0 0 0 0 0 0 0 0 0 0 0 0 0 5 5 57 100 98 55 69
100 100 97 100 100 100 100 100 100 100 100 76 22 0 0 0 0 0 0 0 0 18 22 0 0 0 0 0 0 0 0 0 0 0 0 0 0 0 0 0 17 26 98 100 100 95 30
100 100 100 100 100 100 100 100 100 100 66 23 0 0 0 0 0 0 0 0 91 6 2 1 0 0 0 0 0 0 0 0 0 0 0 1 0 4 0 0 5 85 95 98 100 66 94
63 100 100 100 100 100 100 100 100 56 33 10 0 0 0 0 0 0 0 1 4 0 0 4 2 1 4 3 4 0 0 0 0 0 0 0 0 5 4 0 5 0 1 17 100 100 28
100 100 100 100 100 100 100 100 91 17 16 62 0 4 0 0 0 0 0 5 0 4 0 0 1 6 5 5 5 5 0 0 0 0 0 0 0 67 5 5 1 94 86 24 100 9 63
100 100 100 100 100 100 100 100 5 18 11 0 1 0 0 0 0 1 1 2 0 0 3 7 3 5 5 5 5 5 0 0 0 0 0 0 0 34 99 12 69 2 5 65 62 100 98
100 100 100 100 100 100 100 66 0 3 0 10 0 1 0 0 2 5 3 1 0 0 0 32 79 20 12 26 2 36 0 0 0 0 0 0 0 3 100 93 88 15 0 1 5 66 34
100 100 100 100 100 100 100 90 0 0 0 9 10 87 2 0 0 4 17 4 2 5 22 14 6 6 47 68 44 2 5 2 0 0 0 0 0 0 6 100 11 8 91 78 6 8 100
100 100 100 100 100 100 100 100 18 0 16 2 40 25 0 89 1 1 3 0 5 5 21 80 30 4 5 62 84 100 100 58 0 1 0 1 0 0 1 37 90 48 41 5 5 5 52
100 100 100 100 100 100 100 100 64 40 0 0 4 6 99 21 4 4 73 8 3 4 5 99 39 54 2 52 100 100 100 98 52 0 4 6 100 2 5 18 100 11 86 75 35 42 100
100 100 100 100 100 100 100 100 100 96 3 0 0 0 5 80 87 82 49 0 0 0 27 9 5 7 5 0 0 100 100 60 5 8 2 5 40 95 26 82 83 95 90 48 2 11 60
8 56 96 100 100 100 100 100 100 96 1 0 0 0 5 88 80 14 0 0 0 1 6 81 46 11 99 35 9 2 4 85 90 7 96 71 5 6 78 64 25 15 100 72 5 66 100
41 100 100 100 100 100 100 100 100 98 79 0 0 0 4 4 59 5 1 0 4 16 1 5 5 5 22 20 25 98 17 17 62 22 5 96 41 80 4 37 100 100 40 13 50 66 5
100 100 100 100 100 100 100 100 100 64 93 6 0 0 0 1 4 4 8 57 1 2 87 0 3 5 5 14 73 100 100 100 96 36 100 87 21 32 64 100 71 92 96 100 100 99 6
100 100 100 100 100 100 100 100 100 100 99 11 0 0 0 0 0 2 15 1 38 7 68 3 2 5 51 29 100 100 100 100 100 67 36 99 100 54 5 7 38 58 68 49 84 99 100
100 100 100 100 100 100 100 100 100 100 100 78 0 0 0 0 0 0 24 68 11 98 100 100 46 6 6 12 99 100 100 99 28 100 58 72 100 100 95 100 100 100 10 15 57 33 100